^^
Station Historical Data
 
Daily Summary for July 19, 2018 Units:  Metric    English   Both
Next Day »
Daily Weekly Monthly Yearly Custom
  Current: High: Low: Average:
Temperature: 14.5 °C 18.4 °C 14.5 °C 16.5 °C
Dew Point: 10.5 °C 10.6 °C 8.9 °C 9.8 °C
Humidity: 77% 77% 54% 65%
Wind Speed: 0.0km/h 0.0km/h 0.0km/h 0km/h
Wind Gust: 0.0km/h 3.7km/h - -
WindCalm - - North
Pressure: 1016.1 hPa 1016.2 hPa 1014.9 hPa -
Precipitation: 0.0 mm      
Historical Graphs
 
 
These are the results of the file assigned to $inboxfile in your configuration

Weather Camera

Quebec Radar

This and the area below are optional for those who wish to use them.



This begins the code in the file assigned to $outboxfile in your configuration
 height=
Find more about Weather in Pointe-Claire, CA
Click for weather forecast
Tabular Data for July 19, 2018
Time Temperature Dew Point Pressure Wind Wind Speed Wind Gust Humidity Rainfall Rate (Hourly) solar Conditions
00:04 18.4 °C 8.9 °C 1014.9 hPa Calm     54% 0.0 mm 0.00 W/m2 SKC
00:09 18.4 °C 9.2 °C 1015.0 hPa Calm   3.7 km/h 55% 0.0 mm 0.00 W/m2 SKC
00:14 18.3 °C 9.1 °C 1015.0 hPa Calm     55% 0.0 mm 0.00 W/m2 SKC
00:19 18.3 °C 9.1 °C 1015.0 hPa Calm     55% 0.0 mm 0.00 W/m2 SKC
00:24 18.3 °C 9.1 °C 1015.0 hPa Calm     55% 0.0 mm 0.00 W/m2 SKC
00:29 18.2 °C 9.3 °C 1015.0 hPa Calm     56% 0.0 mm 0.00 W/m2 SKC
00:34 18.2 °C 9.2 °C 1015.0 hPa Calm     56% 0.0 mm 0.00 W/m2 SKC
00:39 18.1 °C 9.2 °C 1015.0 hPa Calm     56% 0.0 mm 0.00 W/m2 SKC
00:44 18.1 °C 9.1 °C 1015.0 hPa Calm     56% 0.0 mm 0.00 W/m2 SKC
00:49 17.9 °C 9.3 °C 1015.0 hPa Calm     57% 0.0 mm 0.00 W/m2 SKC
00:54 17.9 °C 9.2 °C 1015.0 hPa Calm     57% 0.0 mm 0.00 W/m2 SKC
00:59 17.8 °C 9.2 °C 1015.0 hPa Calm     57% 0.0 mm 0.00 W/m2 SKC
01:04 17.8 °C 9.2 °C 1015.1 hPa Calm     57% 0.0 mm 0.00 W/m2 SKC
01:09 17.8 °C 9.4 °C 1015.1 hPa Calm     58% 0.0 mm 0.00 W/m2 SKC
01:14 17.7 °C 9.8 °C 1015.2 hPa Calm     60% 0.0 mm 0.00 W/m2 SKC
01:19 17.6 °C 9.7 °C 1015.2 hPa Calm     60% 0.0 mm 0.00 W/m2 SKC
01:24 17.5 °C 9.7 °C 1015.2 hPa Calm     60% 0.0 mm 0.00 W/m2 SKC
01:29 17.4 °C 10.1 °C 1015.2 hPa Calm     62% 0.0 mm 0.00 W/m2 SKC
01:34 17.3 °C 9.7 °C 1015.3 hPa Calm     61% 0.0 mm 0.00 W/m2 SKC
01:39 17.3 °C 9.9 °C 1015.2 hPa Calm     62% 0.0 mm 0.00 W/m2 SKC
01:44 17.2 °C 10.1 °C 1015.2 hPa Calm     63% 0.0 mm 0.00 W/m2 SKC
01:49 17.1 °C 9.8 °C 1015.2 hPa Calm     62% 0.0 mm 0.00 W/m2 SKC
01:54 17.0 °C 10.1 °C 1015.2 hPa Calm     64% 0.0 mm 0.00 W/m2 SKC
01:59 16.9 °C 10.1 °C 1015.2 hPa Calm     64% 0.0 mm 0.00 W/m2 SKC
02:04 16.8 °C 10.2 °C 1015.2 hPa Calm     65% 0.0 mm 0.00 W/m2 SKC
02:09 16.7 °C 10.1 °C 1015.3 hPa Calm     65% 0.0 mm 0.00 W/m2 SKC
02:14 16.7 °C 10.3 °C 1015.3 hPa Calm     66% 0.0 mm 0.00 W/m2 SKC
02:19 16.6 °C 9.9 °C 1015.3 hPa Calm     65% 0.0 mm 0.00 W/m2 SKC
02:24 16.5 °C 9.9 °C 1015.4 hPa Calm     65% 0.0 mm 0.00 W/m2 SKC
02:29 16.4 °C 9.8 °C 1015.3 hPa Calm     65% 0.0 mm 0.00 W/m2 SKC
02:34 16.3 °C 9.7 °C 1015.2 hPa Calm     65% 0.0 mm 0.00 W/m2 SKC
02:39 16.3 °C 9.7 °C 1015.2 hPa Calm     65% 0.0 mm 0.00 W/m2 SKC
02:44 16.3 °C 9.9 °C 1015.3 hPa Calm     66% 0.0 mm 0.00 W/m2 SKC
02:49 16.2 °C 10.1 °C 1015.4 hPa Calm     67% 0.0 mm 0.00 W/m2 SKC
02:54 16.2 °C 10.3 °C 1015.3 hPa Calm     68% 0.0 mm 0.00 W/m2 SKC
02:59 16.1 °C 10.2 °C 1015.3 hPa Calm     68% 0.0 mm 0.00 W/m2 SKC
03:04 16.1 °C 9.9 °C 1015.4 hPa Calm     67% 0.0 mm 0.00 W/m2 SKC
03:09 16.0 °C 9.9 °C 1015.5 hPa Calm     67% 0.0 mm 0.00 W/m2 SKC
03:14 15.9 °C 9.6 °C 1015.4 hPa Calm     66% 0.0 mm 0.00 W/m2 SKC
03:19 15.9 °C 9.6 °C 1015.6 hPa Calm     66% 0.0 mm 0.00 W/m2 SKC
03:24 15.9 °C 9.6 °C 1015.5 hPa Calm     66% 0.0 mm 0.00 W/m2 SKC
03:29 15.9 °C 9.6 °C 1015.5 hPa Calm     66% 0.0 mm 0.00 W/m2 SKC
03:34 15.9 °C 9.8 °C 1015.5 hPa Calm     67% 0.0 mm 0.00 W/m2 SKC
03:39 15.9 °C 9.8 °C 1015.5 hPa Calm     67% 0.0 mm 0.00 W/m2 SKC
03:44 15.9 °C 10.3 °C 1015.5 hPa Calm     69% 0.0 mm 0.00 W/m2 SKC
03:49 15.8 °C 10.3 °C 1015.4 hPa Calm     70% 0.0 mm 0.00 W/m2 SKC
03:54 15.6 °C 10.3 °C 1015.5 hPa Calm     71% 0.0 mm 0.00 W/m2 SKC
03:59 15.4 °C 10.0 °C 1015.7 hPa Calm     70% 0.0 mm 0.00 W/m2 SKC
04:04 15.4 °C 9.9 °C 1015.7 hPa Calm     70% 0.0 mm 0.00 W/m2 SKC
04:09 15.3 °C 9.9 °C 1015.7 hPa Calm     70% 0.0 mm 0.00 W/m2 SKC
04:14 15.2 °C 9.8 °C 1015.7 hPa Calm     70% 0.0 mm 0.00 W/m2 SKC
04:19 15.2 °C 9.9 °C 1015.8 hPa Calm     71% 0.0 mm 0.00 W/m2 FEW
04:24 15.1 °C 9.9 °C 1015.8 hPa Calm     71% 0.0 mm 0.00 W/m2 FEW
04:29 15.1 °C 10.1 °C 1015.9 hPa Calm     72% 0.0 mm 0.00 W/m2 FEW
04:34 15.0 °C 10.2 °C 1015.9 hPa Calm     73% 0.0 mm 0.00 W/m2 FEW
04:39 14.9 °C 10.3 °C 1015.9 hPa Calm     74% 0.0 mm 0.00 W/m2 FEW
04:44 14.8 °C 10.4 °C 1015.9 hPa Calm     75% 0.0 mm 0.00 W/m2 FEW
04:49 14.7 °C 10.6 °C 1016.1 hPa Calm     76% 0.0 mm 0.00 W/m2 FEW
04:54 14.7 °C 10.3 °C 1016.0 hPa Calm     75% 0.0 mm 0.00 W/m2 FEW
04:59 14.6 °C 10.2 °C 1016.0 hPa Calm   1.9 km/h 75% 0.0 mm 0.00 W/m2 FEW
05:04 14.5 °C 10.3 °C 1016.2 hPa Calm     76% 0.0 mm 0.00 W/m2 FEW
05:09 14.5 °C 10.5 °C 1016.1 hPa Calm     77% 0.0 mm 0.00 W/m2 FEW
Pointe-Claire Weather